STARLINK-36181, 68047

Orbit data source: Space-Track

STARLINK-36181, 68047 is a payload satellite owned by SpaceX/Seattle (US) in LEO that was launched on Mon, 02 Mar 2026 UTC via an FALCON 9 launch vehicle from the Air Force Eastern Test Range (AFETR). Payload-class satellites include a variety of spacecraft equipped with specific instruments for various scientific and technological missions. These include communications satellites like Starlink; space stations such as the ISS; scientific satellites like the Hubble; Earth observation satellites from companies like Planet Labs, Umbra, and HawkEye 360; GPS; miniature CubeSats for education and research; and military/defense satellites.

Loading next visibility...
Identifier
68047, 2026-041H
Orbit
LEO
Country
Flag of USUS
Related business
Manufacturer
SpaceX/Seattle
Mission
Operational Commercial Communications
Bus & Motor
STARLINK V2MO, Unknown motor
Mass
575 kg wet, ~530 kg dry
Launch date (UTC)
2026-03-02 (4 months ago)
Launch vehicle
FALCON 9
Launch site
Air Force Eastern Test Range (AFETR)
Object type
Payload
Rocket body
Debris
Shape & HBR
Box + 2 Pan, 17.7 m
Radar Cross Section
36.964 m², Large (>1 m²)

Expand to show TLE details & history
Last TLE update: 1 day ago

TLE from 1 day ago
0 STARLINK-36181
1 68047U 26041H   26170.60433298  .00020931  00000-0  62872-3 0  9992
2 68047  53.1601 295.6558 0001960  80.8569 279.2655 15.34407591 17008
Epoch: 2026-06-19T14:30Z
TLE epoch observation values (Epoch: 2026-06-19T14:30:14.369Z)
Latitude
-0.00004°
Longitude
170.26497°
Altitude
463.366 km
Speed
7.636 km/s
True Right ascension
19h 42m 37s
True Declination
0° 00' 00"
Sunlit
Object was in full shadow at epoch
Visualization orbit readout
Latitude
Unknown
Longitude
Unknown
Altitude
Unknown
Speed
Unknown
Apparent Right ascension
Unknown
Apparent Declination
Unknown
Sunlit
N/A
Visualization observer readout
Local Sidereal Time
07:19:50
Azimuth
Unknown
Elevation
Unknown
Doppler factor
Unknown
Orbital elements
Apogee altitude
464.278 km
Perigee altitude
461.597 km
Semi-major axis
6,841.075 km
Eccentricity
0.0002
Inclination
53.1601°
RAAN
295.6558°
Arg. of periapsis
80.8569°
True anomaly
279.24333°
Mean anomaly
279.2655°
Eccentric anomaly
279.25442°
Mean motion
3.83581 °/min
Orbital period
93.85 mins
BSTAR
0.00062872
Loading maneuver chart data...
Computing Atmospheric mass density...
Loading historical data...
Loading historical data...
Loading historical data...
Loading historical data...
Loading historical data...
Loading historical data...
Loading historical data...

Documentation

Showing up to 5 results
|